User: anonymous   Login
Location: Pilipovskiye Korichintsy
(49.1833°N, 27.4667°E)
Time: 13:12:07
(UTC+00:00)
Language:

Cosmos 1437 Rocket - Orbit

View from above orbital plane
View from above orbital plane
View from above satellite
View from above satellite

Ground track
Ground track

The orbit data is extracted from the following two-line orbital elements,

1 13771U 83003B   20262.90139443 +.00000224 +00000-0 +11796-4 0  9994
2 13771 081.1581 071.6289 0042021 019.0660 341.2126 15.10613919053350
Epoch (UTC): 18 September 2020 21:38:00
Eccentricity: 0.0042021
inclination: 81.1581°
perigee height: 505 km
apogee height: 563 km
right ascension of ascending node: 71.6289°
argument of perigee: 19.0660°
revolutions per day: 15.10613919
mean anomaly at epoch: 341.2126°
orbit number at epoch: 5335

The dashed part of the orbit path shows where the satellite is in the earth's shadow,  

DLR